Flag for Canada Weather past 2 weeks in Camrose, Alberta, Canada

Now
46 °F

Partly cloudy.


Feels Like: 44 °F
Forecast: 42 / 54 °F
Wind: 6 mph from Northeast

Location: Edmonton International

Current Time: Sep 3, 2015 at 10:45:58 PM

Latest Report: Sep 3, 2015 at 10:00 PM


Visibility: 15 mi

Pressure: 30.07 "Hg (27.47 "Hg at 744m altitude)

Humidity: 71%

Dew point: 37 °F

Location of CamroseLocation

Historic Weather in Camrose — Graph

°F

Camrose temperature yesterday

Maximum temperature yesterday: 66 °F (at 2:00 PM)
Minimum temperature yesterday: 46 °F (at 7:00 AM)
Average temperature yesterday: 55 °F

Past Weeks' High & Low Weather Summary

 TemperatureHumidityPressure
High81 °F (Aug 28, 4:00 PM)100% (Aug 21, 5:00 AM)30.21 "Hg (Aug 21, 5:00 AM)
Low30 °F (Sep 3, 5:00 AM)27% (Aug 30, 1:00 PM)29.42 "Hg (Aug 29, 8:00 PM)
Average56 °F70%29.84 "Hg
* Reported Aug 19 9:00 PM — Sep 3 9:00 PM, Camrose, Weather by CustomWeather, © 2015

Note: Actual official high and low records may vary slightly from our data, if they occured in-between our weather recording intervals... More about our weather records

Advertising

Camrose weather history for previous 24 hours

 ConditionsComfort  
Time TempWeatherWind HumidityBarometerVisibility
9:00 PM
Thu, Sep 3
48 °FPartly sunny.8 mph66%30.06 "Hg15 mi
8:00 PM54 °FPartly sunny.5 mph51%30.05 "Hg15 mi
7:00 PM55 °FBroken clouds.5 mph51%30.03 "Hg15 mi
6:00 PM59 °FBroken clouds.7 mph45%30.02 "Hg15 mi
5:00 PM59 °FBroken clouds.No wind45%30.02 "Hg15 mi
4:00 PM59 °FBroken clouds.8 mph48%30.02 "Hg15 mi
3:00 PM57 °FBroken clouds.3 mph48%30.02 "Hg15 mi
2:00 PM57 °FScattered clouds.9 mph51%30.01 "Hg15 mi
1:00 PM55 °FScattered clouds.5 mph59%30.03 "Hg15 mi
12:00 PM52 °FScattered clouds.8 mph62%30.02 "Hg15 mi
11:00 AM50 °FScattered clouds.9 mph67%30.01 "Hg15 mi
10:00 AM48 °FScattered clouds.9 mph76%30.00 "Hg15 mi
9:00 AM45 °FScattered clouds.10 mph87%29.99 "Hg15 mi
8:00 AM37 °FScattered clouds.3 mph93%29.99 "Hg15 mi
7:00 AM34 °FPassing clouds.6 mph93%29.97 "Hg15 mi
6:00 AM32 °FPassing clouds.5 mph93%29.95 "Hg15 mi
5:00 AM30 °FPassing clouds.6 mph100%29.94 "Hg15 mi
4:00 AM34 °FFog.3 mph93%29.90 "Hg12 mi
3:00 AM36 °FFog.2 mph93%29.89 "Hg12 mi
2:00 AM39 °FPassing clouds.7 mph93%29.88 "Hg15 mi
1:00 AM41 °FPassing clouds.6 mph93%29.87 "Hg15 mi
12:00 AM45 °FPassing clouds.7 mph87%29.84 "Hg15 mi
11:00 PM
Wed, Sep 2
46 °FPassing clouds.7 mph87%29.82 "Hg15 mi
10:00 PM48 °FScattered showers. Partly cloudy.7 mph82%29.82 "Hg15 mi
Weather by CustomWeather, © 2015

See weather overviewHow to use our weather pages